| time (UTC) | temp F | wind direction | speed MPH | gust MPH | rain 1hr in | rain 24hr in | rain mn in | humidity % | barometer mb |
| 20260507140106 | 46 | 179 | 6.0 | 12.0 | 0.00 | 0.02 | 0.00 | 80 | 1015.7 |
| 20260507134544 | 45 | 219 | 6.0 | 13.0 | 0.00 | 0.04 | 0.00 | 80 | 1015.9 |
| 20260507133042 | 44 | 150 | 4.0 | 10.0 | 0.00 | 0.04 | 0.00 | 83 | 1016.0 |
| 20260507131554 | 43 | 242 | 5.0 | 11.0 | 0.00 | 0.04 | 0.00 | 84 | 1016.2 |
| 20260507130050 | 41 | 293 | 3.0 | 10.0 | 0.00 | 0.04 | 0.00 | 87 | 1016.3 |
| 20260507124549 | 40 | 213 | 3.0 | 7.0 | 0.00 | 0.09 | 0.00 | 88 | 1016.5 |
| 20260507123057 | 39 | 205 | 3.0 | 9.0 | 0.00 | 0.09 | 0.00 | 88 | 1016.5 |
| 20260507121546 | 38 | 162 | 3.0 | 8.0 | 0.00 | 0.09 | 0.00 | 88 | 1016.5 |
| 20260507120044 | 38 | 217 | 2.0 | 8.0 | 0.00 | 0.09 | 0.00 | 89 | 1016.4 |
| 20260507114545 | 38 | 198 | 2.0 | 11.0 | 0.00 | 0.11 | 0.00 | 89 | 1016.7 |
| 20260507113045 | 38 | 196 | 2.0 | 7.0 | 0.00 | 0.11 | 0.00 | 89 | 1016.6 |
| 20260507111548 | 38 | 209 | 3.0 | 5.0 | 0.00 | 0.11 | 0.00 | 89 | 1016.6 |
| 20260507110046 | 38 | 235 | 3.0 | 7.0 | 0.00 | 0.11 | 0.00 | 89 | 1016.6 |
| 20260507104542 | 38 | 217 | 3.0 | 7.0 | 0.00 | 0.12 | 0.00 | 89 | 1017.0 |
| 20260507103041 | 38 | 220 | 3.0 | 8.0 | 0.00 | 0.12 | 0.00 | 89 | 1017.1 |
| 20260507101549 | 38 | 221 | 3.0 | 7.0 | 0.00 | 0.12 | 0.00 | 89 | 1017.2 |
| 20260507100045 | 38 | 232 | 3.0 | 8.0 | 0.00 | 0.12 | 0.00 | 90 | 1017.4 |
| 20260507094542 | 38 | 187 | 2.0 | 7.0 | 0.00 | 0.13 | 0.00 | 90 | 1017.6 |
| 20260507093041 | 38 | 199 | 2.0 | 6.0 | 0.00 | 0.13 | 0.00 | 89 | 1017.8 |
| 20260507091541 | 39 | 0 | 1.0 | 6.0 | 0.00 | 0.13 | 0.00 | 89 | 1017.8 |
| 20260507090042 | 39 | 218 | 0.0 | 3.0 | 0.00 | 0.13 | 0.00 | 89 | 1017.9 |
| 20260507084551 | 40 | 0 | 1.0 | 7.0 | 0.00 | 0.15 | 0.00 | 89 | 1017.9 |
| 20260507083048 | 40 | 248 | 1.0 | 6.0 | 0.00 | 0.15 | 0.00 | 89 | 1018.1 |
| 20260507081541 | 40 | 205 | 2.0 | 6.0 | 0.00 | 0.15 | 0.00 | 89 | 1018.2 |
| 20260507080055 | 40 | 207 | 2.0 | 4.0 | 0.00 | 0.15 | 0.00 | 89 | 1018.5 |
| 20260507074544 | 40 | 191 | 2.0 | 6.0 | 0.00 | 0.18 | 0.00 | 89 | 1018.7 |
| 20260507073052 | 40 | 214 | 1.0 | 5.0 | 0.00 | 0.18 | 0.00 | 89 | 1018.9 |
| 20260507071558 | 40 | 214 | 1.0 | 6.0 | 0.00 | 0.18 | 0.00 | 89 | 1019.1 |
| 20260507070043 | 40 | 227 | 1.0 | 4.0 | 0.00 | 0.18 | 0.00 | 89 | 1019.3 |
| 20260507064546 | 40 | 172 | 0.0 | 3.0 | 0.00 | 0.23 | 0.00 | 89 | 1019.3 |
| 20260507063042 | 40 | 215 | 0.0 | 2.0 | 0.00 | 0.23 | 0.00 | 89 | 1019.5 |
| 20260507061544 | 41 | 187 | 0.0 | 4.0 | 0.00 | 0.23 | 0.00 | 89 | 1019.6 |
| 20260507060044 | 41 | 169 | 1.0 | 3.0 | 0.00 | 0.23 | 0.00 | 89 | 1019.8 |
| 20260507054549 | 41 | 186 | 1.0 | 5.0 | 0.00 | 0.25 | 0.00 | 89 | 1019.9 |
| 20260507053046 | 42 | 226 | 0.0 | 5.0 | 0.00 | 0.25 | 0.00 | 89 | 1020.1 |
| 20260507051541 | 42 | 0 | 0.0 | 3.0 | 0.00 | 0.25 | 0.00 | 89 | 1020.0 |
| 20260507050048 | 42 | 0 | 0.0 | 2.0 | 0.00 | 0.25 | 0.00 | 88 | 1019.9 |
| 20260507044542 | 43 | 205 | 0.0 | 1.0 | 0.00 | 0.25 | 0.25 | 87 | 1020.0 |
| 20260507043041 | 43 | 0 | 0.0 | 3.0 | 0.00 | 0.25 | 0.25 | 87 | 1020.1 |
| 20260507041541 | 44 | 0 | 0.0 | 1.0 | 0.00 | 0.25 | 0.25 | 85 | 1020.0 |
| 20260507040051 | 45 | 0 | 0.0 | 2.0 | 0.00 | 0.25 | 0.25 | 84 | 1020.0 |
| 20260507034554 | 46 | 0 | 0.0 | 3.0 | 0.00 | 0.25 | 0.25 | 83 | 1020.0 |
| 20260507033045 | 46 | 231 | 0.0 | 2.0 | 0.00 | 0.25 | 0.25 | 82 | 1019.9 |
| 20260507031541 | 47 | 0 | 0.0 | 2.0 | 0.00 | 0.25 | 0.25 | 81 | 1019.9 |
| 20260507030041 | 48 | 0 | 0.0 | 3.0 | 0.00 | 0.25 | 0.25 | 80 | 1019.8 |
| 20260507024540 | 48 | 221 | 0.0 | 2.0 | 0.00 | 0.25 | 0.25 | 78 | 1019.5 |
| 20260507023040 | 48 | 0 | 0.0 | 2.0 | 0.00 | 0.25 | 0.25 | 77 | 1019.4 |
| 20260507021546 | 49 | 216 | 0.0 | 2.0 | 0.00 | 0.25 | 0.25 | 76 | 1019.2 |
| 20260507020047 | 49 | 0 | 0.0 | 2.0 | 0.00 | 0.25 | 0.25 | 75 | 1019.4 |
| 20260507014549 | 50 | 0 | 0.0 | 2.0 | 0.00 | 0.26 | 0.25 | 74 | 1019.1 |
| 20260507013041 | 51 | 259 | 0.0 | 2.0 | 0.00 | 0.26 | 0.25 | 72 | 1018.9 |
| 20260507011556 | 51 | 264 | 0.0 | 2.0 | 0.00 | 0.26 | 0.25 | 69 | 1018.8 |
| 20260507010044 | 51 | 0 | 0.0 | 2.0 | 0.00 | 0.26 | 0.25 | 70 | 1019.1 |
| 20260507004543 | 52 | 0 | 0.0 | 2.0 | 0.00 | 0.31 | 0.25 | 68 | 1018.9 |
| 20260507003041 | 52 | 0 | 0.0 | 3.0 | 0.00 | 0.31 | 0.25 | 68 | 1018.8 |
| 20260507001549 | 52 | 195 | 0.0 | 2.0 | 0.00 | 0.31 | 0.25 | 66 | 1018.8 |
| 20260507000051 | 52 | 147 | 0.0 | 4.0 | 0.00 | 0.31 | 0.25 | 66 | 1018.8 |
| 20260506234545 | 52 | 44 | 0.0 | 4.0 | 0.00 | 0.31 | 0.25 | 67 | 1018.9 |
| 20260506233043 | 53 | 214 | 1.0 | 5.0 | 0.00 | 0.31 | 0.25 | 65 | 1019.0 |
| 20260506231541 | 53 | 0 | 0.0 | 3.0 | 0.00 | 0.31 | 0.25 | 65 | 1018.9 |
| 20260506230048 | 54 | 212 | 1.0 | 4.0 | 0.00 | 0.31 | 0.25 | 61 | 1019.2 |
| 20260506224547 | 55 | 287 | 1.0 | 5.0 | 0.00 | 0.31 | 0.25 | 56 | 1019.0 |
| 20260506223042 | 57 | 266 | 1.0 | 4.0 | 0.00 | 0.31 | 0.25 | 56 | 1019.1 |
| 20260506221545 | 57 | 186 | 2.0 | 6.0 | 0.00 | 0.31 | 0.25 | 59 | 1018.9 |
| 20260506220057 | 56 | 195 | 1.0 | 4.0 | 0.00 | 0.31 | 0.25 | 61 | 1018.9 |
| 20260506214545 | 55 | 290 | 0.0 | 4.0 | 0.00 | 0.31 | 0.25 | 63 | 1019.1 |
| 20260506213042 | 54 | 338 | 1.0 | 6.0 | 0.00 | 0.31 | 0.25 | 58 | 1019.3 |
| 20260506211541 | 53 | 205 | 2.0 | 5.0 | 0.00 | 0.31 | 0.25 | 66 | 1019.3 |
| 20260506210038 | 54 | 202 | 2.0 | 6.0 | 0.00 | 0.31 | 0.25 | 66 | 1019.5 |
| 20260506204544 | 54 | 304 | 2.0 | 6.0 | 0.00 | 0.31 | 0.25 | 69 | 1019.7 |
| 20260506203121 | 52 | 216 | 2.0 | 5.0 | 0.00 | 0.31 | 0.25 | 70 | 1019.9 |
| 20260506201541 | 52 | 0 | 0.0 | 2.0 | 0.00 | 0.31 | 0.25 | 73 | 1020.0 |
| 20260506200047 | 51 | 224 | 1.0 | 4.0 | 0.00 | 0.31 | 0.25 | 78 | 1020.0 |
| 20260506194545 | 50 | 148 | 1.0 | 5.0 | 0.00 | 0.31 | 0.25 | 83 | 1020.2 |
| 20260506193045 | 50 | 150 | 2.0 | 5.0 | 0.00 | 0.31 | 0.25 | 87 | 1020.2 |
| 20260506191544 | 49 | 229 | 0.0 | 5.0 | 0.00 | 0.31 | 0.25 | 93 | 1020.4 |
| 20260506190048 | 48 | 238 | 0.0 | 3.0 | 0.00 | 0.31 | 0.25 | 94 | 1020.4 |
| 20260506184554 | 48 | 214 | 1.0 | 4.0 | 0.00 | 0.31 | 0.25 | 95 | 1020.6 |
| 20260506183044 | 46 | 0 | 1.0 | 4.0 | 0.00 | 0.31 | 0.25 | 95 | 1020.7 |
| 20260506181541 | 46 | 81 | 0.0 | 2.0 | 0.00 | 0.31 | 0.25 | 94 | 1020.7 |
| 20260506180042 | 46 | 53 | 0.0 | 1.0 | 0.00 | 0.31 | 0.25 | 95 | 1020.9 |
| 20260506174543 | 45 | 0 | 0.0 | 2.0 | 0.00 | 0.31 | 0.25 | 95 | 1020.7 |
| 20260506173053 | 45 | 144 | 0.0 | 3.0 | 0.00 | 0.31 | 0.25 | 96 | 1020.9 |
| 20260506171544 | 44 | 0 | 0.0 | 2.0 | 0.00 | 0.31 | 0.25 | 95 | 1020.7 |
| 20260506170043 | 44 | 91 | 0.0 | 4.0 | 0.00 | 0.31 | 0.25 | 96 | 1020.9 |
| 20260506164547 | 44 | 0 | 0.0 | 1.0 | 0.00 | 0.31 | 0.25 | 96 | 1020.9 |
| 20260506163056 | 44 | 39 | 0.0 | 3.0 | 0.00 | 0.31 | 0.25 | 96 | 1020.8 |
| 20260506161544 | 43 | 34 | 1.0 | 4.0 | 0.00 | 0.31 | 0.25 | 96 | 1020.8 |
| 20260506160045 | 43 | 37 | 0.0 | 3.0 | 0.01 | 0.31 | 0.25 | 96 | 1020.8 |
| 20260506154552 | 43 | 43 | 0.0 | 2.0 | 0.01 | 0.31 | 0.25 | 96 | 1020.8 |
| 20260506153040 | 43 | 0 | 0.0 | 1.0 | 0.02 | 0.31 | 0.25 | 96 | 1020.7 |
| 20260506151541 | 42 | 14 | 0.0 | 2.0 | 0.02 | 0.31 | 0.25 | 96 | 1020.6 |
| 20260506150045 | 42 | 28 | 0.0 | 2.0 | 0.01 | 0.30 | 0.24 | 96 | 1020.5 |
| 20260506144542 | 42 | 315 | 0.0 | 3.0 | 0.02 | 0.30 | 0.24 | 96 | 1020.4 |
| 20260506143042 | 42 | 15 | 0.0 | 2.0 | 0.01 | 0.29 | 0.23 | 96 | 1020.4 |
| 20260506141541 | 42 | 352 | 0.0 | 3.0 | 0.01 | 0.29 | 0.23 | 96 | 1020.4 |